Regional Weather Roundup
Issued by NWS

Home | Current Version | Previous Version | Graphics & Text | Print | Product List | Glossary On
Versions: 1 2 3 4 5 6 7 8 9 10 11 12 13 14 15 16 17 18 19 20 21 22 23 24 25 26 27 28 29 30 31 32 33 34 35 36 37 38 39 40 41 42 43 44 45 46 47 48 49 50
000
ASUS43 KFSD 210802
RWRSD

WEATHER ROUNDUP FOR SOUTH DAKOTA
NATIONAL WEATHER SERVICE SIOUX FALLS SD
300 AM CDT FRI JUL 21 2017

NOTE: "FAIR" INDICATES FEW OR NO CLOUDS BELOW 12,000 FEET WITH NO
SIGNIFICANT WEATHER AND/OR OBSTRUCTIONS TO VISIBILITY.


SDZ001>005-009-010-012>017-210900-
NORTHWEST AND NORTH CENTRAL SOUTH DAKOTA

CITY           SKY/WX    TMP DP  RH WIND       PRES   REMARKS
BUFFALO          N/A     67  63  87 SE13      29.81F
FAITH            N/A     68  65  90 SE18      29.90F
MOBRIDGE       CLOUDY    72  63  73 S15       29.82F
$$

SDZ012>016-024>037-041>051-057-063-072>074-210900-
SOUTHWEST AND SOUTH CENTRAL SOUTH DAKOTA

CITY           SKY/WX    TMP DP  RH WIND       PRES   REMARKS
RAPID CTY ARPT CLOUDY    66  63  90 N8        29.94F
PIERRE         NOT AVBL
CUSTER         CLOUDY    62  58  86 S6        30.05F
ELLSWORTH AFB  CLOUDY    66  66 100 CALM      29.93
PHILIP         CLOUDY    74  64  71 W23G29    29.94R
PINE RIDGE     CLOUDY    72  68  87 SW14      29.92F
SPEARFISH      FAIR      64  63  94 E17G24    29.92F
WINNER         PTSUNNY   78  74  87 E9        29.85F
$$

SDZ004>011-016>023-039-040-210900-
NORTHEAST SOUTH DAKOTA

CITY           SKY/WX    TMP DP  RH WIND       PRES   REMARKS
ABERDEEN       LGT RAIN  73  62  68 SW15G32   29.88F
WATERTOWN      CLOUDY    71  68  90 CALM      29.93F
BROOKINGS      PTCLDY    73  71  93 SE9       29.93F
SISSETON         N/A     71  69  93 S14       29.85F
$$

SDZ017-020-022-023-036>040-048>070-210900-
SOUTHEAST SOUTH DAKOTA

CITY           SKY/WX    TMP DP  RH WIND       PRES   REMARKS
SIOUX FALLS    PTCLDY    76  74  93 SE9       29.89F
HURON          CLOUDY    73  71  93 E7        29.88F
CHAMBERLAIN    CLOUDY    77  76  95 E8        29.84F
MITCHELL       CLOUDY    74  72  93 NE8       29.87F
YANKTON        CLOUDY    75  69  81 E9        29.86F
$$

ABBREVIATIONS USED IN REMARKS
   TC - TEMPERATURE IN CELSIUS
  WCI - WIND CHILL INDEX
   HX - HEAT INDEX
  VSB - VISIBILITY





USA.gov is the U.S. government's official web portal to all federal, state and local government web resources and services.